| time (UTC) | temp F | wind direction | speed MPH | gust MPH | rain 1hr in | rain 24hr in | rain mn in | humidity % | barometer mb |
| 20260505173005 | 79 | 55 | 2.0 | 6.0 | 0.00 | 0.00 | 0.00 | 81 | 1002.0 |
| 20260505172505 | 78 | 50 | 2.0 | 6.0 | 0.00 | 0.00 | 0.00 | 82 | 1001.9 |
| 20260505171505 | 79 | 53 | 3.0 | 4.0 | 0.00 | 0.00 | 0.00 | 80 | 1002.1 |
| 20260505170504 | 80 | 55 | 2.0 | 6.0 | 0.00 | 0.00 | 0.00 | 80 | 1002.0 |
| 20260505170004 | 80 | 37 | 2.0 | 7.0 | 0.00 | 0.00 | 0.00 | 80 | 1002.1 |
| 20260505165504 | 78 | 38 | 4.0 | 7.0 | 0.00 | 0.00 | 0.00 | 82 | 1002.5 |
| 20260505164504 | 78 | 52 | 2.0 | 8.0 | 0.00 | 0.00 | 0.00 | 84 | 1002.5 |
| 20260505164005 | 77 | 47 | 3.0 | 6.0 | 0.00 | 0.00 | 0.00 | 86 | 1002.5 |
| 20260505163505 | 77 | 58 | 2.0 | 7.0 | 0.00 | 0.00 | 0.00 | 86 | 1002.5 |
| 20260505163005 | 77 | 68 | 2.0 | 7.0 | 0.00 | 0.00 | 0.00 | 85 | 1002.6 |
| 20260505162504 | 77 | 55 | 3.0 | 7.0 | 0.00 | 0.00 | 0.00 | 86 | 1002.8 |
| 20260505162004 | 76 | 46 | 2.0 | 6.0 | 0.00 | 0.00 | 0.00 | 88 | 1002.8 |
| 20260505161504 | 75 | 45 | 3.0 | 6.0 | 0.00 | 0.00 | 0.00 | 90 | 1002.8 |
| 20260505161004 | 74 | 49 | 2.0 | 4.0 | 0.00 | 0.00 | 0.00 | 91 | 1003.1 |
| 20260505160505 | 74 | 52 | 2.0 | 4.0 | 0.00 | 0.00 | 0.00 | 92 | 1003.3 |
| 20260505153004 | 75 | 49 | 2.0 | 8.0 | 0.00 | 0.00 | 0.00 | 86 | 1003.5 |
| 20260505152504 | 75 | 60 | 2.0 | 8.0 | 0.00 | 0.00 | 0.00 | 87 | 1003.3 |
| 20260505151505 | 74 | 72 | 2.0 | 8.0 | 0.00 | 0.00 | 0.00 | 88 | 1003.8 |
| 20260505151005 | 73 | 80 | 2.0 | 8.0 | 0.00 | 0.00 | 0.00 | 89 | 1003.6 |
| 20260505150505 | 73 | 78 | 2.0 | 8.0 | 0.00 | 0.00 | 0.00 | 89 | 1003.8 |
| 20260505140505 | 71 | 42 | 2.0 | 8.0 | 0.00 | 0.00 | 0.00 | 92 | 1004.4 |
| 20260505125004 | 70 | 57 | 2.0 | 7.0 | 0.00 | 0.00 | 0.00 | 91 | 1004.3 |
| 20260505124005 | 70 | 44 | 2.0 | 7.0 | 0.00 | 0.00 | 0.00 | 92 | 1004.1 |
| 20260505123505 | 70 | 46 | 1.0 | 7.0 | 0.00 | 0.00 | 0.00 | 93 | 1004.1 |
| 20260505122505 | 69 | 68 | 2.0 | 6.0 | 0.00 | 0.00 | 0.00 | 94 | 1004.0 |
| 20260505121504 | 68 | 71 | 2.0 | 6.0 | 0.00 | 0.00 | 0.00 | 95 | 1003.8 |
| 20260505121004 | 68 | 63 | 2.0 | 6.0 | 0.00 | 0.00 | 0.00 | 96 | 1003.9 |
| 20260505120504 | 68 | 61 | 2.0 | 4.0 | 0.00 | 0.00 | 0.00 | 96 | 1003.8 |
| 20260505120005 | 67 | 68 | 2.0 | 6.0 | 0.00 | 0.00 | 0.00 | 96 | 1003.9 |
| 20260505115505 | 67 | 75 | 3.0 | 6.0 | 0.00 | 0.00 | 0.00 | 96 | 1003.8 |
| 20260505115005 | 67 | 76 | 1.0 | 6.0 | 0.00 | 0.00 | 0.00 | 96 | 1003.9 |
| 20260505114504 | 67 | 71 | 3.0 | 6.0 | 0.00 | 0.00 | 0.00 | 97 | 1003.5 |
| 20260505114004 | 67 | 57 | 2.0 | 4.0 | 0.00 | 0.00 | 0.00 | 97 | 1003.7 |
| 20260505113504 | 67 | 55 | 2.0 | 6.0 | 0.00 | 0.00 | 0.00 | 97 | 1003.5 |
| 20260505113004 | 67 | 66 | 2.0 | 6.0 | 0.00 | 0.00 | 0.00 | 97 | 1003.6 |
| 20260505112504 | 67 | 72 | 2.0 | 4.0 | 0.00 | 0.00 | 0.00 | 97 | 1003.5 |
| 20260505112005 | 66 | 63 | 2.0 | 4.0 | 0.00 | 0.00 | 0.00 | 97 | 1003.6 |
| 20260505111505 | 66 | 61 | 2.0 | 4.0 | 0.00 | 0.00 | 0.00 | 97 | 1003.7 |
| 20260505111005 | 66 | 69 | 3.0 | 4.0 | 0.00 | 0.00 | 0.00 | 97 | 1003.6 |
| 20260505110504 | 66 | 73 | 2.0 | 4.0 | 0.00 | 0.00 | 0.00 | 97 | 1003.7 |
| 20260505102004 | 66 | 69 | 2.0 | 4.0 | 0.00 | 0.00 | 0.00 | 97 | 1003.3 |
| 20260505101504 | 66 | 75 | 2.0 | 6.0 | 0.00 | 0.00 | 0.00 | 97 | 1003.1 |
| 20260505101004 | 66 | 82 | 2.0 | 6.0 | 0.00 | 0.00 | 0.00 | 97 | 1003.0 |
| 20260505100504 | 66 | 78 | 1.0 | 4.0 | 0.00 | 0.00 | 0.00 | 97 | 1003.1 |
| 20260505095004 | 66 | 71 | 2.0 | 6.0 | 0.00 | 0.00 | 0.00 | 97 | 1002.9 |
| 20260505094505 | 66 | 78 | 2.0 | 6.0 | 0.00 | 0.00 | 0.00 | 97 | 1002.9 |
| 20260505093504 | 66 | 76 | 2.0 | 7.0 | 0.00 | 0.00 | 0.00 | 97 | 1002.6 |
| 20260505093004 | 66 | 62 | 3.0 | 6.0 | 0.00 | 0.00 | 0.00 | 97 | 1002.8 |
| 20260505092004 | 66 | 65 | 1.0 | 6.0 | 0.00 | 0.00 | 0.00 | 97 | 1002.6 |
| 20260505091504 | 66 | 58 | 2.0 | 6.0 | 0.00 | 0.00 | 0.00 | 97 | 1002.8 |
| 20260505091004 | 66 | 61 | 2.0 | 7.0 | 0.00 | 0.00 | 0.00 | 97 | 1002.6 |
| 20260505090504 | 66 | 79 | 2.0 | 7.0 | 0.00 | 0.00 | 0.00 | 97 | 1002.6 |
| 20260505085504 | 66 | 93 | 2.0 | 6.0 | 0.00 | 0.00 | 0.00 | 97 | 1002.6 |
| 20260505085004 | 66 | 91 | 0.0 | 6.0 | 0.00 | 0.00 | 0.00 | 97 | 1002.6 |
| 20260505084504 | 66 | 89 | 2.0 | 4.0 | 0.00 | 0.00 | 0.00 | 97 | 1002.6 |
| 20260505084004 | 66 | 84 | 1.0 | 4.0 | 0.00 | 0.00 | 0.00 | 97 | 1002.8 |
| 20260505083504 | 66 | 75 | 2.0 | 4.0 | 0.00 | 0.00 | 0.00 | 97 | 1002.8 |
| 20260505083005 | 66 | 74 | 2.0 | 4.0 | 0.00 | 0.00 | 0.00 | 97 | 1002.8 |
| 20260505082505 | 66 | 74 | 2.0 | 4.0 | 0.00 | 0.00 | 0.00 | 97 | 1002.8 |
| 20260505082005 | 66 | 67 | 2.0 | 4.0 | 0.00 | 0.00 | 0.00 | 97 | 1002.9 |
| 20260505081504 | 66 | 68 | 1.0 | 4.0 | 0.00 | 0.00 | 0.00 | 97 | 1002.9 |
| 20260505081004 | 66 | 67 | 2.0 | 4.0 | 0.00 | 0.00 | 0.00 | 97 | 1002.9 |
| 20260505080005 | 66 | 54 | 2.0 | 6.0 | 0.00 | 0.00 | 0.00 | 96 | 1002.7 |
| 20260505075004 | 66 | 79 | 1.0 | 6.0 | 0.00 | 0.00 | 0.00 | 96 | 1002.6 |
| 20260505074504 | 66 | 70 | 2.0 | 6.0 | 0.00 | 0.00 | 0.00 | 96 | 1002.7 |
| 20260505074005 | 66 | 52 | 2.0 | 6.0 | 0.00 | 0.00 | 0.00 | 96 | 1002.6 |
| 20260505073505 | 66 | 53 | 1.0 | 7.0 | 0.00 | 0.00 | 0.00 | 96 | 1002.6 |
| 20260505073004 | 66 | 57 | 3.0 | 7.0 | 0.00 | 0.00 | 0.00 | 96 | 1002.7 |
| 20260505072504 | 66 | 58 | 2.0 | 6.0 | 0.00 | 0.00 | 0.00 | 96 | 1002.8 |
| 20260505072005 | 66 | 52 | 2.0 | 6.0 | 0.00 | 0.00 | 0.00 | 96 | 1002.8 |
| 20260505071505 | 66 | 51 | 2.0 | 6.0 | 0.00 | 0.00 | 0.00 | 96 | 1003.1 |
| 20260505070504 | 67 | 55 | 3.0 | 6.0 | 0.00 | 0.00 | 0.00 | 96 | 1003.1 |
| 20260505070005 | 66 | 55 | 1.0 | 4.0 | 0.00 | 0.00 | 0.00 | 96 | 1003.3 |
| 20260505065504 | 66 | 55 | 2.0 | 4.0 | 0.00 | 0.00 | 0.00 | 96 | 1003.0 |
| 20260505065005 | 66 | 64 | 2.0 | 4.0 | 0.00 | 0.00 | 0.00 | 96 | 1003.0 |
| 20260505064505 | 66 | 73 | 2.0 | 4.0 | 0.00 | 0.00 | 0.00 | 96 | 1003.1 |
| 20260505064005 | 66 | 70 | 1.0 | 4.0 | 0.00 | 0.00 | 0.00 | 96 | 1003.0 |
| 20260505063504 | 66 | 69 | 2.0 | 4.0 | 0.00 | 0.00 | 0.00 | 96 | 1003.0 |
| 20260505063004 | 66 | 74 | 2.0 | 4.0 | 0.00 | 0.00 | 0.00 | 96 | 1003.2 |
| 20260505062504 | 66 | 71 | 1.0 | 4.0 | 0.00 | 0.00 | 0.00 | 96 | 1003.2 |
| 20260505062005 | 66 | 71 | 2.0 | 4.0 | 0.00 | 0.00 | 0.00 | 95 | 1003.3 |
| 20260505061004 | 66 | 62 | 0.0 | 4.0 | 0.00 | 0.00 | 0.00 | 95 | 1003.2 |
| 20260505060505 | 67 | 67 | 2.0 | 4.0 | 0.00 | 0.00 | 0.00 | 95 | 1003.2 |
| 20260505055505 | 67 | 71 | 2.0 | 4.0 | 0.00 | 0.00 | 0.00 | 95 | 1003.3 |
| 20260505055004 | 67 | 73 | 2.0 | 4.0 | 0.00 | 0.00 | 0.00 | 95 | 1003.4 |
| 20260505054505 | 67 | 80 | 2.0 | 4.0 | 0.00 | 0.00 | 0.00 | 95 | 1003.5 |
| 20260505054005 | 67 | 79 | 1.0 | 4.0 | 0.00 | 0.00 | 0.00 | 95 | 1003.3 |
| 20260505053505 | 67 | 66 | 2.0 | 4.0 | 0.00 | 0.00 | 0.00 | 95 | 1003.2 |
| 20260505053004 | 67 | 54 | 2.0 | 4.0 | 0.00 | 0.00 | 0.00 | 95 | 1003.2 |
| 20260505052005 | 67 | 47 | 1.0 | 4.0 | 0.00 | 0.00 | 0.00 | 95 | 1003.4 |
| 20260505051005 | 67 | 39 | 2.0 | 4.0 | 0.00 | 0.00 | 0.00 | 95 | 1003.3 |
| 20260505050505 | 67 | 46 | 1.0 | 4.0 | 0.00 | 0.00 | 0.00 | 94 | 1003.0 |
| 20260505041505 | 67 | 22 | 2.0 | 6.0 | 0.00 | 0.00 | 0.00 | 94 | 1003.2 |
| 20260505040504 | 67 | 38 | 2.0 | 7.0 | 0.00 | 0.00 | 0.00 | 94 | 1003.3 |
| 20260505040005 | 67 | 31 | 2.0 | 7.0 | 0.00 | 0.00 | 0.00 | 94 | 1003.5 |
| 20260505035505 | 67 | 32 | 2.0 | 7.0 | 0.00 | 0.00 | 0.00 | 93 | 1003.5 |
| 20260505035004 | 67 | 43 | 1.0 | 6.0 | 0.00 | 0.00 | 0.00 | 93 | 1003.5 |
| 20260505034505 | 67 | 50 | 2.0 | 8.0 | 0.00 | 0.00 | 0.00 | 93 | 1003.4 |
| 20260505034005 | 67 | 36 | 2.0 | 8.0 | 0.00 | 0.00 | 0.00 | 93 | 1003.7 |
| 20260505033504 | 67 | 17 | 2.0 | 4.0 | 0.00 | 0.00 | 0.00 | 93 | 1003.7 |
| 20260505033004 | 67 | 32 | 2.0 | 6.0 | 0.00 | 0.00 | 0.00 | 92 | 1003.6 |
| 20260505032504 | 67 | 37 | 3.0 | 6.0 | 0.00 | 0.00 | 0.00 | 92 | 1003.6 |
| 20260505032005 | 68 | 23 | 2.0 | 4.0 | 0.00 | 0.00 | 0.00 | 92 | 1003.6 |
| 20260505031505 | 68 | 15 | 2.0 | 4.0 | 0.00 | 0.00 | 0.00 | 92 | 1003.6 |
| 20260505031005 | 68 | 17 | 1.0 | 4.0 | 0.00 | 0.00 | 0.00 | 92 | 1003.6 |
| 20260505030504 | 68 | 33 | 3.0 | 6.0 | 0.00 | 0.00 | 0.00 | 92 | 1003.3 |
| 20260505030005 | 68 | 36 | 2.0 | 6.0 | 0.00 | 0.00 | 0.00 | 91 | 1003.6 |
| 20260505025504 | 68 | 33 | 2.0 | 6.0 | 0.00 | 0.00 | 0.00 | 91 | 1003.1 |
| 20260505025004 | 68 | 33 | 3.0 | 7.0 | 0.00 | 0.00 | 0.00 | 91 | 1003.2 |
| 20260505024504 | 68 | 25 | 2.0 | 7.0 | 0.00 | 0.00 | 0.00 | 91 | 1003.1 |
| 20260505023505 | 68 | 4 | 2.0 | 9.0 | 0.00 | 0.00 | 0.00 | 91 | 1002.9 |
| 20260505023004 | 68 | 10 | 3.0 | 9.0 | 0.00 | 0.00 | 0.00 | 91 | 1003.0 |
| 20260505022504 | 68 | 12 | 2.0 | 8.0 | 0.00 | 0.00 | 0.00 | 91 | 1003.0 |
| 20260505022004 | 68 | 1 | 2.0 | 8.0 | 0.00 | 0.00 | 0.00 | 91 | 1002.8 |
| 20260505021504 | 68 | 10 | 2.0 | 7.0 | 0.00 | 0.00 | 0.00 | 91 | 1003.0 |
| 20260505021004 | 68 | 27 | 2.0 | 7.0 | 0.00 | 0.00 | 0.00 | 91 | 1002.9 |
| 20260505020505 | 68 | 24 | 2.0 | 8.0 | 0.00 | 0.00 | 0.00 | 91 | 1002.9 |
| 20260505020005 | 68 | 27 | 2.0 | 8.0 | 0.00 | 0.00 | 0.00 | 91 | 1002.7 |
| 20260505015004 | 67 | 21 | 3.0 | 7.0 | 0.00 | 0.00 | 0.00 | 91 | 1002.7 |
| 20260505014005 | 67 | 27 | 2.0 | 6.0 | 0.00 | 0.00 | 0.00 | 91 | 1002.9 |
| 20260505013504 | 67 | 41 | 2.0 | 6.0 | 0.00 | 0.00 | 0.00 | 91 | 1002.8 |
| 20260505012504 | 67 | 16 | 2.0 | 7.0 | 0.00 | 0.00 | 0.00 | 91 | 1003.0 |
| 20260505012005 | 67 | 21 | 2.0 | 9.0 | 0.00 | 0.00 | 0.00 | 91 | 1002.6 |
| 20260505011505 | 67 | 33 | 2.0 | 9.0 | 0.00 | 0.00 | 0.00 | 90 | 1002.7 |
| 20260505011004 | 67 | 33 | 4.0 | 9.0 | 0.00 | 0.00 | 0.00 | 90 | 1002.7 |
| 20260505010504 | 67 | 31 | 2.0 | 7.0 | 0.00 | 0.00 | 0.00 | 90 | 1002.9 |
| 20260505010005 | 67 | 34 | 3.0 | 7.0 | 0.00 | 0.00 | 0.00 | 90 | 1002.7 |
| 20260505005504 | 68 | 38 | 2.0 | 7.0 | 0.00 | 0.00 | 0.00 | 90 | 1002.6 |
| 20260505005005 | 67 | 30 | 2.0 | 6.0 | 0.00 | 0.00 | 0.00 | 89 | 1002.7 |
| 20260505004504 | 67 | 27 | 3.0 | 4.0 | 0.00 | 0.00 | 0.00 | 89 | 1002.6 |
| 20260505004004 | 67 | 34 | 3.0 | 6.0 | 0.00 | 0.00 | 0.00 | 89 | 1002.6 |
| 20260505002504 | 67 | 33 | 2.0 | 7.0 | 0.00 | 0.00 | 0.00 | 89 | 1002.6 |
| 20260505001504 | 67 | 40 | 2.0 | 7.0 | 0.00 | 0.00 | 0.00 | 89 | 1002.5 |
| 20260505001004 | 67 | 38 | 3.0 | 6.0 | 0.00 | 0.00 | 0.00 | 89 | 1002.4 |
| 20260505000504 | 67 | 44 | 1.0 | 4.0 | 0.00 | 0.00 | 0.00 | 89 | 1002.4 |
| 20260505000005 | 67 | 49 | 2.0 | 4.0 | 0.00 | 0.00 | 0.00 | 88 | 1002.3 |
| 20260504235505 | 67 | 63 | 1.0 | 4.0 | 0.00 | 0.00 | 0.00 | 88 | 1002.1 |
| 20260504235005 | 67 | 64 | 2.0 | 4.0 | 0.00 | 0.00 | 0.00 | 88 | 1002.0 |
| 20260504234505 | 67 | 63 | 3.0 | 4.0 | 0.00 | 0.00 | 0.00 | 88 | 1002.0 |
| 20260504233505 | 67 | 64 | 1.0 | 7.0 | 0.00 | 0.00 | 0.00 | 87 | 1002.3 |
| 20260504233005 | 67 | 65 | 2.0 | 4.0 | 0.00 | 0.00 | 0.00 | 87 | 1002.1 |
| 20260504232504 | 67 | 67 | 2.0 | 6.0 | 0.00 | 0.00 | 0.00 | 86 | 1001.9 |
| 20260504232004 | 67 | 64 | 2.0 | 7.0 | 0.00 | 0.00 | 0.00 | 86 | 1001.8 |
| 20260504231504 | 67 | 71 | 1.0 | 7.0 | 0.00 | 0.00 | 0.00 | 85 | 1001.7 |
| 20260504231006 | 67 | 74 | 3.0 | 6.0 | 0.00 | 0.00 | 0.00 | 85 | 1001.7 |
| 20260504230504 | 67 | 72 | 2.0 | 4.0 | 0.00 | 0.00 | 0.00 | 84 | 1001.6 |
| 20260504230005 | 67 | 87 | 2.0 | 4.0 | 0.00 | 0.00 | 0.00 | 83 | 1001.6 |
| 20260504225504 | 67 | 108 | 2.0 | 4.0 | 0.00 | 0.00 | 0.00 | 82 | 1001.6 |
| 20260504225004 | 67 | 112 | 2.0 | 4.0 | 0.00 | 0.00 | 0.00 | 81 | 1001.7 |
| 20260504224004 | 67 | 112 | 0.0 | 2.0 | 0.00 | 0.00 | 0.00 | 80 | 1001.4 |
| 20260504223504 | 67 | 112 | 1.0 | 4.0 | 0.00 | 0.00 | 0.00 | 79 | 1001.6 |
| 20260504223005 | 67 | 112 | 1.0 | 4.0 | 0.00 | 0.00 | 0.00 | 79 | 1001.6 |
| 20260504222505 | 67 | 112 | 1.0 | 4.0 | 0.00 | 0.00 | 0.00 | 79 | 1001.5 |
| 20260504222005 | 67 | 112 | 2.0 | 4.0 | 0.00 | 0.00 | 0.00 | 78 | 1001.3 |
| 20260504221504 | 67 | 105 | 2.0 | 4.0 | 0.00 | 0.00 | 0.00 | 77 | 1001.3 |
| 20260504221004 | 67 | 96 | 2.0 | 4.0 | 0.00 | 0.00 | 0.00 | 77 | 1001.0 |
| 20260504220505 | 68 | 90 | 1.0 | 4.0 | 0.00 | 0.00 | 0.00 | 77 | 1001.4 |
| 20260504215505 | 68 | 90 | 1.0 | 4.0 | 0.00 | 0.00 | 0.00 | 75 | 1001.2 |
| 20260504215004 | 68 | 94 | 2.0 | 4.0 | 0.00 | 0.00 | 0.00 | 74 | 1001.2 |
| 20260504214504 | 69 | 97 | 1.0 | 4.0 | 0.00 | 0.00 | 0.00 | 74 | 1001.4 |
| 20260504214005 | 69 | 95 | 1.0 | 4.0 | 0.00 | 0.00 | 0.00 | 73 | 1001.0 |
| 20260504213505 | 69 | 99 | 1.0 | 2.0 | 0.00 | 0.00 | 0.00 | 73 | 1001.0 |
| 20260504213005 | 69 | 106 | 1.0 | 2.0 | 0.00 | 0.00 | 0.00 | 72 | 1001.0 |
| 20260504212504 | 70 | 99 | 1.0 | 6.0 | 0.00 | 0.00 | 0.00 | 71 | 1000.8 |
| 20260504211504 | 70 | 76 | 2.0 | 4.0 | 0.00 | 0.00 | 0.00 | 68 | 1000.9 |
| 20260504211004 | 71 | 65 | 2.0 | 4.0 | 0.00 | 0.00 | 0.00 | 67 | 1000.6 |
| 20260504210505 | 71 | 66 | 2.0 | 4.0 | 0.00 | 0.00 | 0.00 | 66 | 1001.0 |
| 20260504210006 | 71 | 69 | 2.0 | 6.0 | 0.00 | 0.00 | 0.00 | 65 | 1001.0 |
| 20260504205505 | 71 | 68 | 2.0 | 6.0 | 0.00 | 0.00 | 0.00 | 65 | 1001.0 |
| 20260504205004 | 71 | 64 | 2.0 | 4.0 | 0.00 | 0.00 | 0.00 | 65 | 1001.0 |
| 20260504204504 | 71 | 60 | 2.0 | 6.0 | 0.00 | 0.00 | 0.00 | 65 | 1001.1 |
| 20260504204004 | 72 | 64 | 3.0 | 6.0 | 0.00 | 0.00 | 0.00 | 64 | 1001.1 |
| 20260504203505 | 72 | 70 | 2.0 | 6.0 | 0.00 | 0.00 | 0.00 | 63 | 1001.1 |
| 20260504203005 | 72 | 71 | 2.0 | 6.0 | 0.00 | 0.00 | 0.00 | 63 | 1001.4 |
| 20260504201505 | 73 | 54 | 4.0 | 8.0 | 0.00 | 0.00 | 0.00 | 62 | 1001.4 |
| 20260504201005 | 73 | 60 | 3.0 | 8.0 | 0.00 | 0.00 | 0.00 | 62 | 1001.4 |
| 20260504200505 | 73 | 60 | 3.0 | 8.0 | 0.00 | 0.00 | 0.00 | 62 | 1001.4 |
| 20260504195005 | 74 | 57 | 2.0 | 9.0 | 0.00 | 0.00 | 0.00 | 61 | 1001.6 |
| 20260504194504 | 73 | 55 | 4.0 | 9.0 | 0.00 | 0.00 | 0.00 | 62 | 1001.5 |
| 20260504193505 | 75 | 61 | 2.0 | 7.0 | 0.00 | 0.00 | 0.00 | 59 | 1001.7 |
| 20260504193005 | 75 | 80 | 3.0 | 7.0 | 0.00 | 0.00 | 0.00 | 58 | 1001.5 |
| 20260504192505 | 74 | 74 | 3.0 | 7.0 | 0.00 | 0.00 | 0.00 | 59 | 1001.5 |
| 20260504191004 | 74 | 62 | 3.0 | 9.0 | 0.00 | 0.00 | 0.00 | 59 | 1001.8 |
| 20260504185005 | 74 | 63 | 2.0 | 7.0 | 0.00 | 0.00 | 0.00 | 60 | 1001.6 |
| 20260504184004 | 74 | 59 | 3.0 | 7.0 | 0.00 | 0.00 | 0.00 | 60 | 1001.8 |
| 20260504183504 | 74 | 90 | 3.0 | 7.0 | 0.00 | 0.00 | 0.00 | 59 | 1001.9 |
| 20260504183005 | 73 | 92 | 4.0 | 7.0 | 0.00 | 0.00 | 0.00 | 60 | 1002.0 |
| 20260504182505 | 74 | 75 | 2.0 | 7.0 | 0.00 | 0.00 | 0.00 | 60 | 1002.0 |
| 20260504182005 | 75 | 82 | 2.0 | 6.0 | 0.00 | 0.00 | 0.00 | 58 | 1002.0 |
| 20260504181505 | 74 | 82 | 2.0 | 7.0 | 0.00 | 0.00 | 0.00 | 59 | 1002.1 |
| 20260504181005 | 73 | 60 | 2.0 | 7.0 | 0.00 | 0.00 | 0.00 | 60 | 1002.1 |
| 20260504180505 | 74 | 61 | 2.0 | 7.0 | 0.00 | 0.00 | 0.00 | 59 | 1002.2 |
| 20260504180005 | 73 | 77 | 3.0 | 8.0 | 0.00 | 0.00 | 0.00 | 61 | 1002.4 |
| 20260504175504 | 72 | 73 | 3.0 | 8.0 | 0.00 | 0.00 | 0.00 | 62 | 1002.4 |
| 20260504174505 | 72 | 68 | 2.0 | 9.0 | 0.00 | 0.00 | 0.00 | 62 | 1002.6 |
| 20260504174004 | 72 | 61 | 2.0 | 9.0 | 0.00 | 0.00 | 0.00 | 62 | 1002.8 |
| 20260504173505 | 72 | 73 | 3.0 | 8.0 | 0.00 | 0.00 | 0.00 | 62 | 1002.6 |